owner,sensor,date,latitude,longitude,vertical_datum,sea_water_speed,direction_of_sea_water_velocity,upward_sea_water_velocity,qcFlag
Anadarko,ioos:station:wmo:42373:1,2021-11-01T00:16:00Z,27.3539,-94.6254,79.0,27.5,108.6,-9999.0,'111111111,111111111,999999991'
Anadarko,ioos:station:wmo:42373:1,2021-11-01T00:36:00Z,27.3539,-94.6254,79.0,29.1,108.9,-9999.0,'111111111,111111111,999999991'
Anadarko,ioos:station:wmo:42373:1,2021-11-01T00:56:00Z,27.3539,-94.6254,79.0,28.7,110.2,-9999.0,'111111111,111111111,999999991'
Anadarko,ioos:station:wmo:42373:1,2021-11-01T01:16:00Z,27.3539,-94.6254,79.0,28.5,111.6,-9999.0,'111111111,111111111,999999991'
Anadarko,ioos:station:wmo:42373:1,2021-11-01T01:36:00Z,27.3539,-94.6254,79.0,28.0,113.2,-9999.0,'111111111,111111111,999999991'
Anadarko,ioos:station:wmo:42373:1,2021-11-01T01:56:00Z,27.3539,-94.6254,79.0,28.0,109.9,-9999.0,'111111111,111111111,999999991'
Anadarko,ioos:station:wmo:42373:1,2021-11-01T02:16:00Z,27.3539,-94.6254,79.0,25.3,109.4,-9999.0,'111111111,111111111,999999991'
Anadarko,ioos:station:wmo:42373:1,2021-11-01T02:36:00Z,27.3539,-94.6254,79.0,25.7,109.8,-9999.0,'111111111,111111111,999999991'
Anadarko,ioos:station:wmo:42373:1,2021-11-01T02:56:00Z,27.3539,-94.6254,79.0,25.5,108.8,-9999.0,'111111111,111111111,999999991'
Anadarko,ioos:station:wmo:42373:1,2021-11-01T03:16:00Z,27.3539,-94.6254,79.0,25.2,109.2,-9999.0,'111111111,111111111,999999991'
Anadarko,ioos:station:wmo:42373:1,2021-11-01T03:36:00Z,27.3539,-94.6254,79.0,24.8,105.7,-9999.0,'111111111,111111111,999999991'
Anadarko,ioos:station:wmo:42373:1,2021-11-01T03:56:00Z,27.3539,-94.6254,79.0,24.3,107.0,-9999.0,'111111111,111111111,999999991'
Anadarko,ioos:station:wmo:42373:1,2021-11-01T04:16:00Z,27.3539,-94.6254,79.0,23.9,106.0,-9999.0,'111111111,111111111,999999991'
Anadarko,ioos:station:wmo:42373:1,2021-11-01T04:36:00Z,27.3539,-94.6254,79.0,24.5,105.1,-9999.0,'111111111,111111111,999999991'
Anadarko,ioos:station:wmo:42373:1,2021-11-01T04:56:00Z,27.3539,-94.6254,79.0,24.5,106.1,-9999.0,'111111111,111111111,999999991'
Anadarko,ioos:station:wmo:42373:1,2021-11-01T05:16:00Z,27.3539,-94.6254,79.0,25.0,107.7,-9999.0,'111111111,111111111,999999991'
Anadarko,ioos:station:wmo:42373:1,2021-11-01T05:36:00Z,27.3539,-94.6254,79.0,25.1,106.0,-9999.0,'111111111,111111111,999999991'
Anadarko,ioos:station:wmo:42373:1,2021-11-01T05:56:00Z,27.3539,-94.6254,79.0,24.2,106.3,-9999.0,'111111111,111111111,999999991'
Anadarko,ioos:station:wmo:42373:1,2021-11-01T06:16:00Z,27.3539,-94.6254,79.0,24.9,105.2,-9999.0,'111111111,111111111,999999991'
Anadarko,ioos:station:wmo:42373:1,2021-11-01T06:36:00Z,27.3539,-94.6254,79.0,25.1,106.2,-9999.0,'111111111,111111111,999999991'
Anadarko,ioos:station:wmo:42373:1,2021-11-01T06:56:00Z,27.3539,-94.6254,79.0,24.4,105.9,-9999.0,'111111111,111111111,999999991'
Anadarko,ioos:station:wmo:42373:1,2021-11-01T07:16:00Z,27.3539,-94.6254,79.0,24.1,102.7,-9999.0,'111111111,111111111,999999991'
Anadarko,ioos:station:wmo:42373:1,2021-11-01T07:36:00Z,27.3539,-94.6254,79.0,23.9,103.6,-9999.0,'111111111,111111111,999999991'
Anadarko,ioos:station:wmo:42373:1,2021-11-01T07:56:00Z,27.3539,-94.6254,79.0,23.7,101.2,-9999.0,'111111111,111111111,999999991'
Anadarko,ioos:station:wmo:42373:1,2021-11-01T08:16:00Z,27.3539,-94.6254,79.0,24.1,101.7,-9999.0,'111111111,111111111,999999991'
Anadarko,ioos:station:wmo:42373:1,2021-11-01T08:36:00Z,27.3539,-94.6254,79.0,24.5,103.5,-9999.0,'111111111,111111111,999999991'
Anadarko,ioos:station:wmo:42373:1,2021-11-01T08:56:00Z,27.3539,-94.6254,79.0,23.8,103.3,-9999.0,'111111111,111111111,999999991'
Anadarko,ioos:station:wmo:42373:1,2021-11-01T09:16:00Z,27.3539,-94.6254,79.0,24.1,103.2,-9999.0,'111111111,111111111,999999991'
Anadarko,ioos:station:wmo:42373:1,2021-11-01T09:36:00Z,27.3539,-94.6254,79.0,24.3,102.6,-9999.0,'111111111,111111111,999999991'
Anadarko,ioos:station:wmo:42373:1,2021-11-01T09:56:00Z,27.3539,-94.6254,79.0,24.1,102.9,-9999.0,'111111111,111111111,999999991'
Anadarko,ioos:station:wmo:42373:1,2021-11-01T10:16:00Z,27.3539,-94.6254,79.0,23.6,99.7,-9999.0,'111111111,111111111,999999991'
Anadarko,ioos:station:wmo:42373:1,2021-11-01T10:36:00Z,27.3539,-94.6254,79.0,23.7,99.0,-9999.0,'111111111,111111111,999999991'
Anadarko,ioos:station:wmo:42373:1,2021-11-01T10:56:00Z,27.3539,-94.6254,79.0,23.3,97.9,-9999.0,'111111111,111111111,999999991'
Anadarko,ioos:station:wmo:42373:1,2021-11-01T11:16:00Z,27.3539,-94.6254,79.0,23.2,97.9,-9999.0,'111111111,111111111,999999991'
Anadarko,ioos:station:wmo:42373:1,2021-11-01T11:36:00Z,27.3539,-94.6254,79.0,22.1,95.5,-9999.0,'111111111,111111111,999999991'
Anadarko,ioos:station:wmo:42373:1,2021-11-01T11:56:00Z,27.3539,-94.6254,79.0,22.4,96.4,-9999.0,'111111111,111111111,999999991'
Anadarko,ioos:station:wmo:42373:1,2021-11-01T12:16:00Z,27.3539,-94.6254,79.0,21.4,94.8,-9999.0,'111111111,111111111,999999991'
Anadarko,ioos:station:wmo:42373:1,2021-11-01T12:36:00Z,27.3539,-94.6254,79.0,20.8,98.6,-9999.0,'111111111,111111111,999999991'
Anadarko,ioos:station:wmo:42373:1,2021-11-01T12:56:00Z,27.3539,-94.6254,79.0,19.5,97.7,-9999.0,'111111111,111111111,999999991'
Anadarko,ioos:station:wmo:42373:1,2021-11-01T13:16:00Z,27.3539,-94.6254,79.0,18.8,97.0,-9999.0,'111111111,111111111,999999991'
Anadarko,ioos:station:wmo:42373:1,2021-11-01T13:36:00Z,27.3539,-94.6254,79.0,19.3,97.1,-9999.0,'111111111,111111111,999999991'
Anadarko,ioos:station:wmo:42373:1,2021-11-01T13:56:00Z,27.3539,-94.6254,79.0,19.0,96.6,-9999.0,'111111111,111111111,999999991'
Anadarko,ioos:station:wmo:42373:1,2021-11-01T14:16:00Z,27.3539,-94.6254,79.0,19.4,95.0,-9999.0,'111111111,111111111,999999991'
Anadarko,ioos:station:wmo:42373:1,2021-11-01T14:36:00Z,27.3539,-94.6254,79.0,18.8,97.0,-9999.0,'111111111,111111111,999999991'
Anadarko,ioos:station:wmo:42373:1,2021-11-01T14:56:00Z,27.3539,-94.6254,79.0,19.3,96.8,-9999.0,'111111111,111111111,999999991'
Anadarko,ioos:station:wmo:42373:1,2021-11-01T15:16:00Z,27.3539,-94.6254,79.0,19.2,93.3,-9999.0,'111111111,111111111,999999991'
Anadarko,ioos:station:wmo:42373:1,2021-11-01T15:36:00Z,27.3539,-94.6254,79.0,20.1,90.9,-9999.0,'111111111,111111111,999999991'
Anadarko,ioos:station:wmo:42373:1,2021-11-01T15:56:00Z,27.3539,-94.6254,79.0,20.5,92.8,-9999.0,'111111111,111111111,999999991'
Anadarko,ioos:station:wmo:42373:1,2021-11-01T16:16:00Z,27.3539,-94.6254,79.0,20.8,91.1,-9999.0,'111111111,111111111,999999991'
Anadarko,ioos:station:wmo:42373:1,2021-11-01T16:36:00Z,27.3539,-94.6254,79.0,20.8,90.3,-9999.0,'111111111,111111111,999999991'
Anadarko,ioos:station:wmo:42373:1,2021-11-01T16:56:00Z,27.3539,-94.6254,79.0,21.0,89.5,-9999.0,'111111111,111111111,999999991'
Anadarko,ioos:station:wmo:42373:1,2021-11-01T17:16:00Z,27.3539,-94.6254,79.0,23.5,89.8,-9999.0,'111111111,111111111,999999991'
Anadarko,ioos:station:wmo:42373:1,2021-11-01T17:36:00Z,27.3539,-94.6254,79.0,23.4,92.0,-9999.0,'111111111,111111111,999999991'
Anadarko,ioos:station:wmo:42373:1,2021-11-01T17:56:00Z,27.3539,-94.6254,79.0,23.8,91.9,-9999.0,'111111111,111111111,999999991'
Anadarko,ioos:station:wmo:42373:1,2021-11-01T18:16:00Z,27.3539,-94.6254,79.0,22.9,94.8,-9999.0,'111111111,111111111,999999991'
Anadarko,ioos:station:wmo:42373:1,2021-11-01T18:36:00Z,27.3539,-94.6254,79.0,22.5,96.9,-9999.0,'111111111,111111111,999999991'
Anadarko,ioos:station:wmo:42373:1,2021-11-01T18:56:00Z,27.3539,-94.6254,79.0,22.8,96.5,-9999.0,'111111111,111111111,999999991'
Anadarko,ioos:station:wmo:42373:1,2021-11-01T19:16:00Z,27.3539,-94.6254,79.0,23.9,97.0,-9999.0,'111111111,111111111,999999991'
Anadarko,ioos:station:wmo:42373:1,2021-11-01T19:36:00Z,27.3539,-94.6254,79.0,24.5,97.5,-9999.0,'111111111,111111111,999999991'
Anadarko,ioos:station:wmo:42373:1,2021-11-01T19:56:00Z,27.3539,-94.6254,79.0,24.3,96.1,-9999.0,'111111111,111111111,999999991'
Anadarko,ioos:station:wmo:42373:1,2021-11-01T20:16:00Z,27.3539,-94.6254,79.0,23.9,94.8,-9999.0,'111111111,111111111,999999991'
Anadarko,ioos:station:wmo:42373:1,2021-11-01T20:36:00Z,27.3539,-94.6254,79.0,23.3,94.9,-9999.0,'111111111,111111111,999999991'
Anadarko,ioos:station:wmo:42373:1,2021-11-01T20:56:00Z,27.3539,-94.6254,79.0,22.9,95.0,-9999.0,'111111111,111111111,999999991'
Anadarko,ioos:station:wmo:42373:1,2021-11-01T21:16:00Z,27.3539,-94.6254,79.0,23.5,96.6,-9999.0,'111111111,111111111,999999991'
Anadarko,ioos:station:wmo:42373:1,2021-11-01T21:36:00Z,27.3539,-94.6254,79.0,23.0,97.5,-9999.0,'111111111,111111111,999999991'
Anadarko,ioos:station:wmo:42373:1,2021-11-01T21:56:00Z,27.3539,-94.6254,79.0,22.5,95.6,-9999.0,'111111111,111111111,999999991'
Anadarko,ioos:station:wmo:42373:1,2021-11-01T22:16:00Z,27.3539,-94.6254,79.0,22.4,95.6,-9999.0,'111111111,111111111,999999991'
Anadarko,ioos:station:wmo:42373:1,2021-11-01T22:36:00Z,27.3539,-94.6254,79.0,22.5,92.5,-9999.0,'111111111,111111111,999999991'
Anadarko,ioos:station:wmo:42373:1,2021-11-01T22:56:00Z,27.3539,-94.6254,79.0,23.1,88.3,-9999.0,'111111111,111111111,999999991'
Anadarko,ioos:station:wmo:42373:1,2021-11-01T23:16:00Z,27.3539,-94.6254,79.0,20.8,89.2,-9999.0,'111111111,111111111,999999991'
Anadarko,ioos:station:wmo:42373:1,2021-11-01T23:36:00Z,27.3539,-94.6254,79.0,21.0,86.2,-9999.0,'111111111,111111111,999999991'
Anadarko,ioos:station:wmo:42373:1,2021-11-01T23:56:00Z,27.3539,-94.6254,79.0,20.9,81.8,-9999.0,'111111111,111111111,999999991'
Anadarko,ioos:station:wmo:42373:1,2021-11-02T00:16:00Z,27.3539,-94.6254,79.0,22.4,90.0,-9999.0,'111111111,111111111,999999991'
Anadarko,ioos:station:wmo:42373:1,2021-11-02T00:36:00Z,27.3539,-94.6254,79.0,24.8,93.2,-9999.0,'111111111,111111111,999999991'
Anadarko,ioos:station:wmo:42373:1,2021-11-02T00:56:00Z,27.3539,-94.6254,79.0,25.5,90.0,-9999.0,'111111111,111111111,999999991'
Anadarko,ioos:station:wmo:42373:1,2021-11-02T01:16:00Z,27.3539,-94.6254,79.0,25.2,86.8,-9999.0,'111111111,111111111,999999991'
Anadarko,ioos:station:wmo:42373:1,2021-11-02T01:36:00Z,27.3539,-94.6254,79.0,24.7,85.8,-9999.0,'111111111,111111111,999999991'
Anadarko,ioos:station:wmo:42373:1,2021-11-02T01:56:00Z,27.3539,-94.6254,79.0,25.9,86.5,-9999.0,'111111111,111111111,999999991'
Anadarko,ioos:station:wmo:42373:1,2021-11-02T02:16:00Z,27.3539,-94.6254,79.0,25.5,85.3,-9999.0,'111111111,111111111,999999991'
Anadarko,ioos:station:wmo:42373:1,2021-11-02T02:36:00Z,27.3539,-94.6254,79.0,24.5,79.4,-9999.0,'111111111,111111111,999999991'
Anadarko,ioos:station:wmo:42373:1,2021-11-02T02:56:00Z,27.3539,-94.6254,79.0,23.2,79.1,-9999.0,'111111111,111111111,999999991'
Anadarko,ioos:station:wmo:42373:1,2021-11-02T03:16:00Z,27.3539,-94.6254,79.0,21.6,82.8,-9999.0,'111111111,111111111,999999991'
Anadarko,ioos:station:wmo:42373:1,2021-11-02T03:36:00Z,27.3539,-94.6254,79.0,20.5,83.6,-9999.0,'111111111,111111111,999999991'
Anadarko,ioos:station:wmo:42373:1,2021-11-02T03:56:00Z,27.3539,-94.6254,79.0,20.0,87.4,-9999.0,'111111111,111111111,999999991'
Anadarko,ioos:station:wmo:42373:1,2021-11-02T04:16:00Z,27.3539,-94.6254,79.0,20.1,87.7,-9999.0,'111111111,111111111,999999991'
Anadarko,ioos:station:wmo:42373:1,2021-11-02T04:36:00Z,27.3539,-94.6254,79.0,19.9,88.0,-9999.0,'111111111,111111111,999999991'
Anadarko,ioos:station:wmo:42373:1,2021-11-02T04:56:00Z,27.3539,-94.6254,79.0,19.2,87.0,-9999.0,'111111111,111111111,999999991'
Anadarko,ioos:station:wmo:42373:1,2021-11-02T05:16:00Z,27.3539,-94.6254,79.0,18.7,90.0,-9999.0,'111111111,111111111,999999991'
Anadarko,ioos:station:wmo:42373:1,2021-11-02T05:36:00Z,27.3539,-94.6254,79.0,19.4,92.1,-9999.0,'111111111,111111111,999999991'
Anadarko,ioos:station:wmo:42373:1,2021-11-02T05:56:00Z,27.3539,-94.6254,79.0,23.6,94.6,-9999.0,'111111111,111111111,999999991'
Anadarko,ioos:station:wmo:42373:1,2021-11-02T06:16:00Z,27.3539,-94.6254,79.0,20.9,95.5,-9999.0,'111111111,111111111,999999991'
Anadarko,ioos:station:wmo:42373:1,2021-11-02T06:36:00Z,27.3539,-94.6254,79.0,21.3,98.9,-9999.0,'111111111,111111111,999999991'
Anadarko,ioos:station:wmo:42373:1,2021-11-02T06:56:00Z,27.3539,-94.6254,79.0,22.0,101.5,-9999.0,'111111111,111111111,999999991'
Anadarko,ioos:station:wmo:42373:1,2021-11-02T07:16:00Z,27.3539,-94.6254,79.0,21.3,104.1,-9999.0,'111111111,111111111,999999991'
Anadarko,ioos:station:wmo:42373:1,2021-11-02T07:36:00Z,27.3539,-94.6254,79.0,20.4,104.2,-9999.0,'111111111,111111111,999999991'
Anadarko,ioos:station:wmo:42373:1,2021-11-02T07:56:00Z,27.3539,-94.6254,79.0,19.4,100.7,-9999.0,'111111111,111111111,999999991'
Anadarko,ioos:station:wmo:42373:1,2021-11-02T08:16:00Z,27.3539,-94.6254,79.0,19.2,101.7,-9999.0,'111111111,111111111,999999991'
Anadarko,ioos:station:wmo:42373:1,2021-11-02T08:36:00Z,27.3539,-94.6254,79.0,18.3,103.6,-9999.0,'111111111,111111111,999999991'
Anadarko,ioos:station:wmo:42373:1,2021-11-02T08:56:00Z,27.3539,-94.6254,79.0,17.9,104.9,-9999.0,'111111111,111111111,999999991'
Anadarko,ioos:station:wmo:42373:1,2021-11-02T09:16:00Z,27.3539,-94.6254,79.0,17.8,106.0,-9999.0,'111111111,111111111,999999991'
Anadarko,ioos:station:wmo:42373:1,2021-11-02T09:36:00Z,27.3539,-94.6254,79.0,16.6,106.5,-9999.0,'111111111,111111111,999999991'
Anadarko,ioos:station:wmo:42373:1,2021-11-02T09:56:00Z,27.3539,-94.6254,79.0,17.4,103.6,-9999.0,'111111111,111111111,999999991'
Anadarko,ioos:station:wmo:42373:1,2021-11-02T10:16:00Z,27.3539,-94.6254,79.0,15.4,107.4,-9999.0,'111111111,111111111,999999991'
Anadarko,ioos:station:wmo:42373:1,2021-11-02T10:36:00Z,27.3539,-94.6254,79.0,19.4,109.3,-9999.0,'111111111,111111111,999999991'
Anadarko,ioos:station:wmo:42373:1,2021-11-02T10:56:00Z,27.3539,-94.6254,79.0,18.6,107.6,-9999.0,'111111111,111111111,999999991'
Anadarko,ioos:station:wmo:42373:1,2021-11-02T11:16:00Z,27.3539,-94.6254,79.0,16.3,102.1,-9999.0,'111111111,111111111,999999991'
Anadarko,ioos:station:wmo:42373:1,2021-11-02T11:36:00Z,27.3539,-94.6254,79.0,18.6,120.3,-9999.0,'111111111,111111111,999999991'
Anadarko,ioos:station:wmo:42373:1,2021-11-02T11:56:00Z,27.3539,-94.6254,79.0,17.0,109.6,-9999.0,'111111111,111111111,999999991'
Anadarko,ioos:station:wmo:42373:1,2021-11-02T12:16:00Z,27.3539,-94.6254,79.0,16.4,107.3,-9999.0,'111111111,111111111,999999991'
Anadarko,ioos:station:wmo:42373:1,2021-11-02T12:36:00Z,27.3539,-94.6254,79.0,14.9,104.8,-9999.0,'111111111,111111111,999999991'
Anadarko,ioos:station:wmo:42373:1,2021-11-02T12:56:00Z,27.3539,-94.6254,79.0,15.4,108.2,-9999.0,'111111111,111111111,999999991'
Anadarko,ioos:station:wmo:42373:1,2021-11-02T13:16:00Z,27.3539,-94.6254,79.0,15.8,106.6,-9999.0,'111111111,111111111,999999991'
Anadarko,ioos:station:wmo:42373:1,2021-11-02T13:36:00Z,27.3539,-94.6254,79.0,14.4,105.7,-9999.0,'111111111,111111111,999999991'
Anadarko,ioos:station:wmo:42373:1,2021-11-02T13:56:00Z,27.3539,-94.6254,79.0,14.0,104.9,-9999.0,'111111111,111111111,999999991'
Anadarko,ioos:station:wmo:42373:1,2021-11-02T14:16:00Z,27.3539,-94.6254,79.0,14.2,98.1,-9999.0,'111111111,111111111,999999991'
Anadarko,ioos:station:wmo:42373:1,2021-11-02T14:36:00Z,27.3539,-94.6254,79.0,13.9,90.4,-9999.0,'111111111,111111111,999999991'
Anadarko,ioos:station:wmo:42373:1,2021-11-02T14:56:00Z,27.3539,-94.6254,79.0,12.7,97.2,-9999.0,'111111111,111111111,999999991'
Anadarko,ioos:station:wmo:42373:1,2021-11-02T15:16:00Z,27.3539,-94.6254,79.0,12.5,96.9,-9999.0,'111111111,111111111,999999991'
Anadarko,ioos:station:wmo:42373:1,2021-11-02T15:36:00Z,27.3539,-94.6254,79.0,13.8,99.2,-9999.0,'111111111,111111111,999999991'
Anadarko,ioos:station:wmo:42373:1,2021-11-02T15:56:00Z,27.3539,-94.6254,79.0,15.2,97.9,-9999.0,'111111111,111111111,999999991'
Anadarko,ioos:station:wmo:42373:1,2021-11-02T16:16:00Z,27.3539,-94.6254,79.0,15.2,95.3,-9999.0,'111111111,111111111,999999991'
Anadarko,ioos:station:wmo:42373:1,2021-11-02T16:36:00Z,27.3539,-94.6254,79.0,15.7,96.9,-9999.0,'111111111,111111111,999999991'
Anadarko,ioos:station:wmo:42373:1,2021-11-02T16:56:00Z,27.3539,-94.6254,79.0,15.7,99.2,-9999.0,'111111111,111111111,999999991'
Anadarko,ioos:station:wmo:42373:1,2021-11-02T17:16:00Z,27.3539,-94.6254,79.0,12.5,90.5,-9999.0,'111111111,111111111,999999991'
Anadarko,ioos:station:wmo:42373:1,2021-11-02T17:36:00Z,27.3539,-94.6254,79.0,13.1,105.0,-9999.0,'111111111,111111111,999999991'
Anadarko,ioos:station:wmo:42373:1,2021-11-02T17:56:00Z,27.3539,-94.6254,79.0,13.8,114.3,-9999.0,'111111111,111111111,999999991'
Anadarko,ioos:station:wmo:42373:1,2021-11-02T18:16:00Z,27.3539,-94.6254,79.0,13.7,110.9,-9999.0,'111111111,111111111,999999991'
Anadarko,ioos:station:wmo:42373:1,2021-11-02T18:36:00Z,27.3539,-94.6254,79.0,13.4,108.3,-9999.0,'111111111,111111111,999999991'
Anadarko,ioos:station:wmo:42373:1,2021-11-02T18:56:00Z,27.3539,-94.6254,79.0,12.4,109.3,-9999.0,'111111111,111111111,999999991'
Anadarko,ioos:station:wmo:42373:1,2021-11-02T19:16:00Z,27.3539,-94.6254,79.0,12.6,112.5,-9999.0,'111111111,111111111,999999991'
Anadarko,ioos:station:wmo:42373:1,2021-11-02T19:36:00Z,27.3539,-94.6254,79.0,12.8,113.6,-9999.0,'111111111,111111111,999999991'
Anadarko,ioos:station:wmo:42373:1,2021-11-02T19:56:00Z,27.3539,-94.6254,79.0,13.3,116.4,-9999.0,'111111111,111111111,999999991'
Anadarko,ioos:station:wmo:42373:1,2021-11-02T20:16:00Z,27.3539,-94.6254,79.0,13.6,115.6,-9999.0,'111111111,111111111,999999991'
Anadarko,ioos:station:wmo:42373:1,2021-11-02T20:36:00Z,27.3539,-94.6254,79.0,12.7,115.6,-9999.0,'111111111,111111111,999999991'
Anadarko,ioos:station:wmo:42373:1,2021-11-02T20:56:00Z,27.3539,-94.6254,79.0,11.2,119.3,-9999.0,'111111111,111111111,999999991'
Anadarko,ioos:station:wmo:42373:1,2021-11-02T21:16:00Z,27.3539,-94.6254,79.0,11.6,125.9,-9999.0,'111111111,111111111,999999991'
Anadarko,ioos:station:wmo:42373:1,2021-11-02T21:36:00Z,27.3539,-94.6254,79.0,12.2,141.0,-9999.0,'111111111,111111111,999999991'
Anadarko,ioos:station:wmo:42373:1,2021-11-02T21:56:00Z,27.3539,-94.6254,79.0,10.7,118.5,-9999.0,'111111111,111111111,999999991'
Anadarko,ioos:station:wmo:42373:1,2021-11-02T22:16:00Z,27.3539,-94.6254,79.0,11.4,138.2,-9999.0,'111111111,111111111,999999991'
Anadarko,ioos:station:wmo:42373:1,2021-11-02T22:36:00Z,27.3539,-94.6254,79.0,9.4,149.9,-9999.0,'111111111,111111111,999999991'
Anadarko,ioos:station:wmo:42373:1,2021-11-02T22:56:00Z,27.3539,-94.6254,79.0,8.2,150.0,-9999.0,'111111111,111111111,999999991'
Anadarko,ioos:station:wmo:42373:1,2021-11-02T23:16:00Z,27.3539,-94.6254,79.0,8.8,136.4,-9999.0,'111111111,111111111,999999991'
Anadarko,ioos:station:wmo:42373:1,2021-11-02T23:36:00Z,27.3539,-94.6254,79.0,7.3,142.8,-9999.0,'111111111,111111111,999999991'
Anadarko,ioos:station:wmo:42373:1,2021-11-02T23:56:00Z,27.3539,-94.6254,79.0,7.4,129.5,-9999.0,'111111111,111111111,999999991'
Anadarko,ioos:station:wmo:42373:1,2021-11-03T00:16:00Z,27.3539,-94.6254,79.0,9.5,131.6,-9999.0,'111111111,111111111,999999991'
Anadarko,ioos:station:wmo:42373:1,2021-11-03T00:36:00Z,27.3539,-94.6254,79.0,12.9,133.7,-9999.0,'111111111,111111111,999999991'
Anadarko,ioos:station:wmo:42373:1,2021-11-03T00:56:00Z,27.3539,-94.6254,79.0,12.7,136.3,-9999.0,'111111111,111111111,999999991'
Anadarko,ioos:station:wmo:42373:1,2021-11-03T01:16:00Z,27.3539,-94.6254,79.0,13.7,133.5,-9999.0,'111111111,111111111,999999991'
Anadarko,ioos:station:wmo:42373:1,2021-11-03T01:36:00Z,27.3539,-94.6254,79.0,12.5,141.5,-9999.0,'111111111,111111111,999999991'
Anadarko,ioos:station:wmo:42373:1,2021-11-03T01:56:00Z,27.3539,-94.6254,79.0,14.2,143.6,-9999.0,'111111111,111111111,999999991'
Anadarko,ioos:station:wmo:42373:1,2021-11-03T02:16:00Z,27.3539,-94.6254,79.0,14.6,151.9,-9999.0,'111111111,111111111,999999991'
Anadarko,ioos:station:wmo:42373:1,2021-11-03T02:36:00Z,27.3539,-94.6254,79.0,14.6,154.8,-9999.0,'111111111,111111111,999999991'
Anadarko,ioos:station:wmo:42373:1,2021-11-03T02:56:00Z,27.3539,-94.6254,79.0,14.2,159.8,-9999.0,'111111111,111111111,999999991'
Anadarko,ioos:station:wmo:42373:1,2021-11-03T03:16:00Z,27.3539,-94.6254,79.0,14.9,162.8,-9999.0,'111111111,111111111,999999991'
Anadarko,ioos:station:wmo:42373:1,2021-11-03T03:36:00Z,27.3539,-94.6254,79.0,15.2,154.6,-9999.0,'111111111,111111111,999999991'
Anadarko,ioos:station:wmo:42373:1,2021-11-03T03:56:00Z,27.3539,-94.6254,79.0,15.2,161.6,-9999.0,'111111111,111111111,999999991'
Anadarko,ioos:station:wmo:42373:1,2021-11-03T04:16:00Z,27.3539,-94.6254,79.0,16.3,163.2,-9999.0,'111111111,111111111,999999991'
Anadarko,ioos:station:wmo:42373:1,2021-11-03T04:36:00Z,27.3539,-94.6254,79.0,17.0,163.3,-9999.0,'111111111,111111111,999999991'
Anadarko,ioos:station:wmo:42373:1,2021-11-03T04:56:00Z,27.3539,-94.6254,79.0,18.3,163.8,-9999.0,'111111111,111111111,999999991'
Anadarko,ioos:station:wmo:42373:1,2021-11-03T05:16:00Z,27.3539,-94.6254,79.0,18.4,167.5,-9999.0,'111111111,111111111,999999991'
Anadarko,ioos:station:wmo:42373:1,2021-11-03T05:36:00Z,27.3539,-94.6254,79.0,17.9,166.1,-9999.0,'111111111,111111111,999999991'
Anadarko,ioos:station:wmo:42373:1,2021-11-03T05:56:00Z,27.3539,-94.6254,79.0,18.9,169.9,-9999.0,'111111111,111111111,999999991'
Anadarko,ioos:station:wmo:42373:1,2021-11-03T06:16:00Z,27.3539,-94.6254,79.0,19.6,170.9,-9999.0,'111111111,111111111,999999991'
Anadarko,ioos:station:wmo:42373:1,2021-11-03T06:36:00Z,27.3539,-94.6254,79.0,20.5,168.5,-9999.0,'111111111,111111111,999999991'
Anadarko,ioos:station:wmo:42373:1,2021-11-03T06:56:00Z,27.3539,-94.6254,79.0,20.3,169.8,-9999.0,'111111111,111111111,999999991'
Anadarko,ioos:station:wmo:42373:1,2021-11-03T07:16:00Z,27.3539,-94.6254,79.0,21.2,173.5,-9999.0,'111111111,111111111,999999991'
Anadarko,ioos:station:wmo:42373:1,2021-11-03T07:36:00Z,27.3539,-94.6254,79.0,20.7,177.2,-9999.0,'111111111,111111111,999999991'
Anadarko,ioos:station:wmo:42373:1,2021-11-03T07:56:00Z,27.3539,-94.6254,79.0,19.6,180.6,-9999.0,'111111111,111111111,999999991'
Anadarko,ioos:station:wmo:42373:1,2021-11-03T08:16:00Z,27.3539,-94.6254,79.0,20.3,181.7,-9999.0,'111111111,111111111,999999991'
Anadarko,ioos:station:wmo:42373:1,2021-11-03T08:36:00Z,27.3539,-94.6254,79.0,20.7,181.4,-9999.0,'111111111,111111111,999999991'
Anadarko,ioos:station:wmo:42373:1,2021-11-03T08:56:00Z,27.3539,-94.6254,79.0,19.9,185.2,-9999.0,'111111111,111111111,999999991'
Anadarko,ioos:station:wmo:42373:1,2021-11-03T09:16:00Z,27.3539,-94.6254,79.0,20.0,190.1,-9999.0,'111111111,111111111,999999991'
Anadarko,ioos:station:wmo:42373:1,2021-11-03T09:36:00Z,27.3539,-94.6254,79.0,18.3,185.3,-9999.0,'111111111,111111111,999999991'
Anadarko,ioos:station:wmo:42373:1,2021-11-03T09:56:00Z,27.3539,-94.6254,79.0,17.5,190.9,-9999.0,'111111111,111111111,999999991'
Anadarko,ioos:station:wmo:42373:1,2021-11-03T10:16:00Z,27.3539,-94.6254,79.0,18.2,195.0,-9999.0,'111111111,111111111,999999991'
Anadarko,ioos:station:wmo:42373:1,2021-11-03T10:36:00Z,27.3539,-94.6254,79.0,17.5,196.3,-9999.0,'111111111,111111111,999999991'
Anadarko,ioos:station:wmo:42373:1,2021-11-03T10:56:00Z,27.3539,-94.6254,79.0,16.0,200.5,-9999.0,'111111111,111111111,999999991'
Anadarko,ioos:station:wmo:42373:1,2021-11-03T11:16:00Z,27.3539,-94.6254,79.0,14.5,198.4,-9999.0,'111111111,111111111,999999991'
Anadarko,ioos:station:wmo:42373:1,2021-11-03T11:36:00Z,27.3539,-94.6254,79.0,14.4,206.7,-9999.0,'111111111,111111111,999999991'
Anadarko,ioos:station:wmo:42373:1,2021-11-03T11:56:00Z,27.3539,-94.6254,79.0,12.0,205.7,-9999.0,'111111111,111111111,999999991'
Anadarko,ioos:station:wmo:42373:1,2021-11-03T12:16:00Z,27.3539,-94.6254,79.0,10.2,197.7,-9999.0,'111111111,111111111,999999991'
Anadarko,ioos:station:wmo:42373:1,2021-11-03T12:36:00Z,27.3539,-94.6254,79.0,12.5,195.3,-9999.0,'111111111,111111111,999999991'
Anadarko,ioos:station:wmo:42373:1,2021-11-03T12:56:00Z,27.3539,-94.6254,79.0,11.6,181.0,-9999.0,'111111111,111111111,999999991'
Anadarko,ioos:station:wmo:42373:1,2021-11-03T13:16:00Z,27.3539,-94.6254,79.0,11.3,192.8,-9999.0,'111111111,111111111,999999991'
Anadarko,ioos:station:wmo:42373:1,2021-11-03T13:36:00Z,27.3539,-94.6254,79.0,12.8,185.4,-9999.0,'111111111,111111111,999999991'